Погода в Али-Бердуковском

Россия / Карачаево-Черкесская Республика     43°59′33″N   41°44′30″E
темп.,
°C
ветер,
м/с
пор.,
м/с
влажн.,
%
обл.,
%
осадки,
мм/ч
давл.,
гПа
погр.,
м
11 апреля, вс
вс1100:00+2ююв0197100 0.3 1021138
03:00+2в1196100 0.3 101968
06:00+3св119299 0.0 101977
09:00+4св228695 0.0 1018374
12:00+6ссв2282100 0.0 1017543
15:00+8ссв2176100 0.1 1016702
18:00+7с2279100 0.1 1016515
21:00+6ссз1189100 0.1 101771
12 апреля, пн
пн1200:00+6з118999 0.0 101779
03:00+6сз1190100 0.0 101847
06:00+5сз1193100 0.1 1019102
09:00+5ссв2295100 0.6 1020208
12:00+5ссв2294100 2.4 1021303
15:00+5ссв1292100 3.2 1022333
18:00+5св1195100 0.4 1022119
21:00+5сз0097100 0.8 102382
13 апреля, вт
вт1300:00+5ю1296100 1.6 102299
03:00+5св1195100 3.1 102240
06:00+5всв0094100 0.0 102242
09:00+7сз118394 0.1 1022577
12:00+7ссв4485100 0.2 1021619
15:00+7с3391100 0.4 1021440
18:00+6с2396100 0.2 1021214
21:00+6всв1196100 0.3 102083
14 апреля, ср
ср1400:00+5с2298100 0.1 1018115
03:00+6зюз1298100 1.3 1018151
06:00+5ююз2393100 0.2 1018205
09:00+8з1280100 0.2 1017647
12:00+9ссз2372100 0.1 1017805
15:00+9с5580100 0.2 1017840
18:00+7ссв228799 0.4 1018463
21:00+6всв1194100 0.4 101891
15 апреля, чт
чт1500:00+5ю2294100 0.0 101717
03:00+4ю338618 0.0 101732
06:00+3ю34751 0.0 101857
09:00+10ююз225253 0.0 1015343
12:00+14ссв224091 0.0 10131237
15:00+15ссв4243100 0.0 10121508
18:00+10вюв1180100 2.0 1016215
21:00+8ююв1185100 2.0 101610